Location: Unspecified
(0.0000°N, 0.0000°E)
Time: 01:03:21
(UTC+02:00)

JASON 3 - Pass Details

Date: 04 October 2021
Orbit: 1332 x 1343 km, 66.0° (Epoch: 18 October)

Event Time Altitude Azimuth Distance (km) Brightness Sun altitude
Rises 06:29:31 0° 175° (S) 4,344 ? -19.7°
Reaches altitude 10° 06:33:02 10° 162° (SSE) 3,372 ? -18.9°
Maximum altitude 06:39:22 25° 111° (ESE) 2,432 ? -17.3°
Drops below altitude 10° 06:45:40 10° 60° (ENE) 3,371 ? -15.7°
Sets 06:49:08 0° 47° (NE) 4,343 ? -14.9°
